This demonstration page uses our WeatherBlox Daily Observations layout. Learn more.

Left ArrowRight Arrow

Hourly Observations for October 28, 2021

Temp ( °F °C ) Dew Point ( °F °C ) Humidity (%) Winds ( mph kmh ) Pressure ( in mb ) Visibility ( mi km ) Precip ( " mm )
12:01 am 00:01 Cloudy with Light Rain 50 10 46 7.8 86 86 N 20 31 29.71 1006 8 13 0.01 0.25
12:54 am 00:54 Cloudy with Light Rain 50 10 45 7.2 83 83 NNW 20 31 29.67 1005 10 16 0.01 0.25
1:54 am 01:54 Cloudy 50 10 45 7.2 83 83 N 23 37 29.68 1005 10 16 0.01 0.25
2:54 am 02:54 Cloudy 50 10 45 7.2 83 83 N 20 31 29.69 1005 10 16 N/A
3:54 am 03:54 Cloudy 50 10 44 6.7 80 80 N 21 33 29.68 1005 10 16 N/A
4:54 am 04:54 Cloudy 50 10 43 6.1 77 77 NNW 18 30 29.70 1006 10 16 N/A
5:54 am 05:54 Cloudy 50 10 43 6.1 77 77 NNW 23 37 29.70 1006 10 16 N/A
6:16 am 06:16 Cloudy 49 9.4 43 6.1 80 80 NNW 18 30 29.72 1007 10 16 N/A
6:46 am 06:46 Cloudy 49 9.4 43 6.1 80 80 N 21 33 29.73 1007 10 16 N/A
6:54 am 06:54 Cloudy 49 9.4 43 6.1 80 80 N 21 33 29.72 1007 10 16 N/A
7:54 am 07:54 Cloudy 49 9.4 43 6.1 80 80 N 20 31 29.73 1007 10 16 N/A
8:50 am 08:50 Mostly Cloudy 48 9 43 6 82 82 NNW 17 28 29.78 1008 10 16 N/A
8:54 am 08:54 Mostly Cloudy 49 9.4 43 6.1 80 80 NNW 18 30 29.76 1008 10 16 N/A
9:08 am 09:08 Partly Cloudy 49 9.4 43 6.1 80 80 NNW 16 26 29.77 1008 10 16 N/A
9:54 am 09:54 Mostly Cloudy 49 9.4 42 5.6 77 77 NNW 20 31 29.78 1008 10 16 N/A
10:54 am 10:54 Mostly Cloudy 50 10 41 5 71 71 NNW 17 28 29.79 1009 10 16 N/A
11:16 am 11:16 Mostly Cloudy 50 10 41 5 71 71 NNW 21 33 29.80 1009 10 16 N/A
11:54 am 11:54 Sunny 50 10 40 4.4 68 68 NNW 20 31 29.80 1009 10 16 N/A
12:54 pm 12:54 Partly Cloudy 53 11.7 40 4.4 61 61 NNW 26 43 29.78 1009 10 16 N/A
1:54 pm 13:54 Sunny 56 13.3 41 5 57 57 N 23 37 29.78 1009 10 16 N/A
2:54 pm 14:54 Sunny 59 15 41 5 51 51 N 25 41 29.78 1008 10 16 N/A
3:54 pm 15:54 Mostly Sunny 60 15.6 40 4.4 47 47 NNW 29 46 29.78 1009 10 16 N/A
4:54 pm 16:54 Mostly Sunny 60 15.6 40 4.4 47 47 NNW 28 44 29.80 1009 10 16 N/A
5:54 pm 17:54 Mostly Cloudy 58 14.4 39 3.9 50 50 N 36 57 29.82 1010 10 16 N/A
6:54 pm 18:54 Mostly Clear 56 13.3 39 3.9 53 53 N 22 35 29.86 1011 10 16 N/A
7:54 pm 19:54 Clear 54 12.2 38 3.3 55 55 NNW 23 37 29.88 1012 10 16 N/A
8:54 pm 20:54 Clear 53 11.7 39 3.9 59 59 N 23 37 29.90 1013 10 16 N/A
9:54 pm 21:54 Clear 52 11.1 39 3.9 61 61 NNW 21 33 29.92 1013 10 16 N/A
10:54 pm 22:54 Clear 51 10.6 38 3.3 61 61 NNW 21 33 29.93 1013 10 16 N/A
11:54 pm 23:54 Clear 50 10 38 3.3 63 63 N 18 30 29.94 1014 10 16 N/A

Powered by AerisWeather